Regional Weather Roundup
Issued by NWS

Home | Current Version | Previous Version | Graphics & Text | Print | Product List | Glossary On
Versions: 1 2 3 4 5 6 7 8 9 10 11 12 13 14 15 16 17 18 19 20 21 22 23 24 25 26 27 28 29 30 31 32 33 34 35 36 37 38 39 40 41 42 43 44 45 46 47 48 49 50
000
ASUS43 KOAX 302202
RWRNE

WEATHER ROUNDUP FOR NEBRASKA
NATIONAL WEATHER SERVICE OMAHA NE
500 PM CDT MON MAR 30 2015

NOTES: SATELLITE DATA IS BEING USED TO AUGMENT CLOUD COVER ABOVE
       12000 FEET.
       "FAIR" INDICATES FEW OR NO CLOUDS BELOW 12,000 FEET WITH NO
       SIGNIFICANT WEATHER AND/OR OBSTRUCTIONS TO VISIBILITY.

  * THESE STATIONS DO NOT REPORT WEATHER SUCH AS RAIN...SNOW OR FOG.

NEZ001>004-019>022-054>056-302300-
NEBRASKA PANHANDLE

CITY           SKY/WX    TMP DP  RH WIND       PRES   REMARKS
SCOTTSBLUFF    MOSUNNY   72  26  18 N16       30.05F
ALLIANCE       MOSUNNY   69  26  20 NW13      30.05F
CHADRON        SUNNY     71  30  21 W14G24    30.02F
SIDNEY         SUNNY     70  26  19 NW14G26   30.08F
$$

NEZ057>060-069>072-079>082-302300-
SOUTHWEST NEBRASKA

CITY           SKY/WX    TMP DP  RH WIND       PRES   REMARKS
NORTH PLATTE   SUNNY     77  22  13 N14G22    29.97F
IMPERIAL         N/A     76  18  11 N13       30.01F
MCCOOK         SUNNY     80  18  10 NW12      29.97S
$$

NEZ005>010-023>029-035>040-094-302300-
NORTH CENTRAL NEBRASKA

CITY           SKY/WX    TMP DP  RH WIND       PRES   REMARKS
VALENTINE      SUNNY     72  27  18 NW17G26   29.98F
AINSWORTH      SUNNY     71  28  19 N17G24    29.98S
BROKEN BOW     MOSUNNY   77  25  14 N17G23    29.96F
ORD            PTSUNNY   75  20  12 N22       29.93F
$$

NEZ041-046>049-061>064-073>077-083>087-302300-
SOUTH CENTRAL NEBRASKA

CITY           SKY/WX    TMP DP  RH WIND       PRES   REMARKS
GRAND ISLAND   PTSUNNY   76  24  14 N10G18    29.94F
AURORA         MOSUNNY   76  24  15 NW6       29.93F
HASTINGS       SUNNY     78  25  14 N15G22    29.93F
KEARNEY *        N/A    N/A N/A N/A MISG        N/A
YORK           MOSUNNY   75  27  16 NW12      29.93S
$$

NEZ011>018-030>034-042>045-302300-
NORTHEAST NEBRASKA

CITY           SKY/WX    TMP DP  RH WIND       PRES   REMARKS
NORFOLK        MOSUNNY   77  25  14 NW22G31   29.88F
BLAIR          MOSUNNY   78  24  13 W15G24    29.89F
COLUMBUS *     PTSUNNY   73  28  19 W7        29.92F
FREMONT        MOSUNNY   78  27  15 W15       29.89F
TEKAMAH        SUNNY     81  25  12 W22G31    29.86F
$$

NEZ050>053-065>068-078-088>093-302300-
SOUTHEAST NEBRASKA

CITY           SKY/WX    TMP DP  RH WIND       PRES   REMARKS
LINCOLN        PTSUNNY   78  32  18 W14       29.92F
OMAHA EPPLEY   PTSUNNY   78  30  17 W22G28    29.88F
BEATRICE       PTSUNNY   77  36  22 W20       29.92F
FALLS CITY     PTSUNNY   77  23  13 SW18      29.94F
NEBRASKA CITY  MOSUNNY   73  25  16 SW16G22   29.93F
$$

NEZ044-045-051>053-067-302300-
OMAHA AREA

CITY           SKY/WX    TMP DP  RH WIND       PRES   REMARKS
OMAHA EPPLEY   PTSUNNY   78  30  17 W22G28    29.88F
BLAIR          MOSUNNY   78  24  13 W15G24    29.89F
FREMONT        MOSUNNY   78  27  15 W15       29.89F
WAHOO          FAIR      75  23  14 W14G23    29.90F
$$


USA.gov is the U.S. government's official web portal to all federal, state and local government web resources and services.